This is the latest recevied weather packets stored in our database for station/object ALTO-WX. If no packets are shown the sender has not sent any weather packets the latest 10 day(s).
| Time | Temp. | Humidity | Pressure | Rain* | Wind** | Luminosity | Snow |
|---|---|---|---|---|---|---|---|
| 1778180460 | 11.67° C | 37% | 982.2 hPa | 0 mm | - | - | - |
| 1778179539 | 11.67° C | 40% | 983.1 hPa | 0 mm | - | - | - |
| 1778178653 | 11.67° C | 38% | 983.1 hPa | 0 mm | - | - | - |
| 1778177739 | 11.11° C | 38% | 983.1 hPa | 0 mm | - | - | - |
| 1778176866 | 11.11° C | 38% | 983.1 hPa | 0 mm | - | - | - |
| 1778175935 | 10.56° C | 42% | 983.7 hPa | 0 mm | - | - | - |
| 1778175054 | 10.56° C | 42% | 984.1 hPa | 0 mm | - | - | - |
| 1778174139 | 10.56° C | 42% | 984.1 hPa | 0 mm | - | - | - |
| 1778173262 | 10° C | 42% | 984.1 hPa | 0 mm | - | - | - |
| 1778172339 | 10° C | 47% | 983.1 hPa | 0 mm | - | - | - |
| 1778171453 | 10° C | 47% | 983.2 hPa | 0 mm | - | - | - |
| 1778170540 | 9.44° C | 47% | 983.2 hPa | 0 mm | - | - | - |
| 1778169661 | 8.89° C | 47% | 983.2 hPa | 0 mm | - | - | - |
| 1778168739 | 8.89° C | 49% | 983.8 hPa | 0 mm | - | - | - |
| 1778167855 | 8.33° C | 51% | 983.7 hPa | 0 mm | - | - | - |
| 1778166939 | 8.33° C | 51% | 983.7 hPa | 0 mm | - | - | - |
| 1778166061 | 8.33° C | 51% | 983.7 hPa | 0 mm | - | - | - |
| 1778165137 | 7.78° C | 57% | 982 hPa | 0 mm | - | - | - |
| 1778164256 | 7.78° C | 63% | 982.8 hPa | 0 mm | - | - | - |
| 1778163339 | 7.22° C | 63% | 982.8 hPa | 0 mm | - | - | - |
| 1778162472 | 6.67° C | 63% | 982.8 hPa | 0 mm | - | - | - |
| 1778161538 | 6.67° C | 65% | 983.4 hPa | 0 mm | - | - | - |
| 1778160654 | 6.11° C | 65% | 983.4 hPa | 0 mm | - | - | - |
| 1778159734 | 6.11° C | 65% | 983.4 hPa | 0 mm | - | - | - |
| 1778158864 | 5.56° C | 65% | 983.4 hPa | 0 mm | - | - | - |
* Rain latest hour (hover to see other rain measurements)
** Current wind speed in m/s (hover to see current wind gust speed)